This is the latest recevied weather packets stored in our database for station/object JR4VEV-13. If no packets are shown the sender has not sent any weather packets the latest 10 day(s).
| Time | Temp. | Humidity | Pressure | Rain* | Wind** | Luminosity | Snow |
|---|---|---|---|---|---|---|---|
| 1777374951 | 18.33° C | 71% | 1012 hPa | 0 mm | - | - | - |
| 1777374352 | 18.33° C | 69% | 1011.9 hPa | 0 mm | - | - | - |
| 1777373751 | 18.33° C | 70% | 1011.6 hPa | 0 mm | - | - | - |
| 1777373152 | 18.33° C | 67% | 1011.4 hPa | 0 mm | - | - | - |
| 1777372552 | 18.89° C | 67% | 1011.4 hPa | 0 mm | - | - | - |
| 1777371952 | 18.89° C | 66% | 1010.9 hPa | 0 mm | - | - | - |
| 1777371351 | 19.44° C | 65% | 1011 hPa | 0 mm | - | - | - |
| 1777370751 | 20° C | 60% | 1010.6 hPa | 0 mm | - | - | - |
| 1777370151 | 20.56° C | 56% | 1010.4 hPa | 0 mm | - | - | - |
| 1777369552 | 21.11° C | 53% | 1010.4 hPa | 0 mm | - | - | - |
| 1777368952 | 21.67° C | 50% | 1010.1 hPa | 0 mm | - | - | - |
| 1777368352 | 22.22° C | 42% | 1009.8 hPa | 0 mm | - | - | - |
| 1777367752 | 23.33° C | 39% | 1009.7 hPa | 0 mm | - | - | - |
| 1777367151 | 23.89° C | 42% | 1009.6 hPa | 0 mm | - | - | - |
| 1777366552 | 23.33° C | 39% | 1009.7 hPa | 0 mm | - | - | - |
| 1777365952 | 23.33° C | 37% | 1009.4 hPa | 0 mm | - | - | - |
| 1777365352 | 23.89° C | 36% | 1009.6 hPa | 0 mm | - | - | - |
| 1777364751 | 23.89° C | 32% | 1009.4 hPa | 0 mm | - | - | - |
| 1777364152 | 24.44° C | 30% | 1009.4 hPa | 0 mm | - | - | - |
| 1777363552 | 24.44° C | 29% | 1009.3 hPa | 0 mm | - | - | - |
| 1777362952 | 25° C | 27% | 1009.2 hPa | 0 mm | - | - | - |
| 1777362353 | 25° C | 26% | 1009.2 hPa | 0 mm | - | - | - |
| 1777361751 | 25.56° C | 24% | 1009.1 hPa | 0 mm | - | - | - |
| 1777361150 | 26.11° C | 22% | 1009.2 hPa | 0 mm | - | - | - |
| 1777360551 | 26.67° C | 22% | 1009.1 hPa | 0 mm | - | - | - |
* Rain latest hour (hover to see other rain measurements)
** Current wind speed in m/s (hover to see current wind gust speed)